Tracking 18980 objects as of 18-Feb-2018
HD Live streaming from Space Station
objects crossing your sky now

INTELSAT 903

Track INTELSAT 903 now!
INTELSAT 903 is classified as:


NORAD ID: 27403
Int'l Code: 2002-016A
Perigee: 35,788.4 km
Apogee: 35,799.0 km
Inclination: 0.4 °
Period: 1,436.1 minutes
Semi major axis: 42164 km
RCS: 28.8022 m2 (large)
Launch date: March 30, 2002
Source: International Telecommunications Satellite Organization (ITSO)
Launch site: TYURATAM MISSILE AND SPACE COMPLEX (TTMTR)

76 C-band, 22 Ku-band, broadcasting, business services, direct-to-home TV broadcasting, telecommunications, VSAT networks; Atlantic Ocean region.
aabbcc
Your satellite tracking list
Your tracking list is empty




NASA's NSSDC Master Catalog

Two Line Element Set (TLE):
1 27403U 02016A   18047.76391478 -.00000231  00000-0  00000+0 0  9996
2 27403   0.3646  95.2948 0001265 284.3908  10.5063  1.00271966 58147
Source of the keplerian elements: AFSPC